[[{"header":{"parameterUnit":"m.s-1","parameterCategory":2,"la1":30.2992,"la2":30.254,"lo1":-89.0895,"lo2":-89.0443,"dy":0.0025,"dx":0.0025,"nx":19,"ny":19,"refTime":"2026-03-14T03:00:00:Z","depth":"0","parameterNumber":2,"parameterNumberName":"U-component_of_CURRENTS"},"data":[0,0,0,-0.1037,-0.1038,-0.1073,-0.1073,-0.1055,-0.1055,0,0,0,0,0,0,0,0,0,0,0,-0.1016,-0.1016,-0.1037,-0.1038,-0.1073,-0.1073,-0.1055,-0.1055,0,0,0,0,0,0,0,0,0,0,0,-0.1016,-0.1016,-0.1016,-0.1038,-0.1073,-0.1073,-0.1055,-0.1043,0,0,0,0,0,0,0,0,0,0,-0.1016,-0.1002,-0.1016,-0.1016,-0.1039,-0.1073,-0.1073,-0.1043,-0.1043,-0.1023,0,-0.1029,0,-0.1047,-0.1053,-0.1052,0,0,0,-0.1031,-0.1001,-0.1019,-0.1016,-0.1039,-0.1073,-0.1055,-0.1043,-0.1044,-0.1024,-0.1029,-0.1029,-0.1047,-0.1052,-0.1052,-0.1041,-0.1041,0,0,-0.1029,-0.1013,-0.1019,-0.102,-0.1047,-0.1054,-0.1057,-0.1045,-0.1038,-0.1029,-0.1029,-0.1047,-0.1052,-0.1052,-0.1041,-0.1041,0,0,0,-0.1029,-0.1011,-0.103,-0.102,-0.1035,-0.1056,-0.1058,-0.1038,-0.1047,-0.1029,-0.1046,-0.1052,-0.1052,-0.104,-0.1041,-0.1076,0,0,0,-0.1027,-0.1012,-0.1029,-0.1018,-0.1035,-0.1045,-0.1052,-0.1048,-0.1048,-0.1046,-0.1052,-0.1051,-0.104,-0.104,-0.1074,-0.1068,0,0,0,-0.1014,-0.101,-0.1016,-0.1017,-0.1038,-0.1046,-0.1054,-0.1048,-0.1058,-0.1052,-0.1051,-0.104,-0.104,-0.1073,-0.1067,-0.0952,0,0,0,-0.0994,-0.1006,-0.1015,-0.1037,-0.1038,-0.1077,-0.1054,-0.1072,-0.1071,-0.1052,-0.104,-0.1041,-0.1073,-0.1066,-0.0954,-0.0749,-0.0726,0,0,-0.1001,-0.1006,-0.1022,-0.1033,-0.1071,-0.1072,-0.1099,-0.1085,-0.1064,-0.1038,-0.1038,-0.1075,-0.1067,-0.0953,-0.0763,-0.0739,0,0,0,-0.1021,-0.1026,-0.1042,-0.1064,-0.1095,-0.1111,-0.111,-0.1098,-0.1081,-0.1066,-0.107,-0.1063,-0.0989,-0.0869,-0.0851,-0.0747,-0.1042,-0.1042,-0.1042,-0.0986,-0.1022,-0.1048,-0.1088,-0.111,-0.1135,-0.1137,-0.1116,-0.1103,-0.1096,-0.1089,-0.1023,-0.09,-0.0883,-0.0782,-0.1097,-0.1097,-0.1097,-0.1097,-0.0993,-0.1002,-0.1048,-0.1085,-0.1114,-0.1134,-0.1144,-0.1139,-0.108,-0.1106,-0.1032,-0.0911,-0.0864,-0.0763,-0.1099,-0.1099,-0.1098,-0.1098,-0.1098,-0.0962,-0.0968,-0.1006,-0.1043,-0.1072,-0.111,-0.1074,-0.1084,-0.1076,-0.1052,-0.0814,-0.0811,-0.0713,-0.0976,-0.0975,-0.0975,-0.0974,-0.0974,-0.0973,-0.0898,-0.0938,-0.0939,-0.0987,-0.0991,-0.0997,-0.0996,-0.095,-0.0829,-0.0802,-0.0799,-0.0663,-0.0983,-0.0978,-0.0966,-0.0967,-0.0968,-0.0969,-0.0969,-0.0821,-0.0839,-0.0832,-0.0837,-0.0853,-0.0788,-0.0815,-0.0637,-0.0565,-0.0462,-0.0357,-0.0635,-0.0574,-0.0586,-0.057,-0.0452,-0.0452,-0.0452,-0.0452,-0.0734,-0.0759,-0.0716,-0.0705,-0.0691,-0.0688,-0.0491,-0.035,-0.0158,-0.0033,-0.0092,-0.01,-0.0125,-0.0041,-0.0066,-0.0041,0.0209,0.0209,0.021,-0.0647,-0.0661,-0.0597,-0.0629,-0.0618,-0.0557,-0.0321,-0.006,0.0206,0.0236,0.001,-0.0017,-0.0042,-0.009,0.0026,-0.0017,0.0018,0,0]},{"header":{"parameterUnit":"m.s-1","parameterCategory":2,"la1":30.2992,"la2":30.254,"lo1":-89.0895,"lo2":-89.0443,"dy":0.0025,"dx":0.0025,"nx":19,"ny":19,"refTime":"2026-03-14T03:00:00:Z","depth":"0","parameterNumber":3,"parameterNumberName":"V-component_of_CURRENTS"},"data":[0,0,0,0.0128,0.0128,0.0136,0.0136,0.0176,0.0176,0,0,0,0,0,0,0,0,0,0,0,0.0123,0.0123,0.0128,0.0128,0.0136,0.0136,0.0176,0.0176,0,0,0,0,0,0,0,0,0,0,0,0.0123,0.0123,0.0123,0.0128,0.0136,0.0136,0.0176,0.0163,0,0,0,0,0,0,0,0,0,0,0.0152,0.0141,0.0123,0.0123,0.0128,0.0136,0.0136,0.0163,0.0164,0.0178,0,0.0174,0,0.0175,0.0179,0.0179,0,0,0,0.0133,0.0139,0.0142,0.0123,0.0128,0.0136,0.0134,0.0163,0.0165,0.0181,0.0174,0.0176,0.0176,0.0179,0.018,0.0237,0.0237,0,0,0.0133,0.0127,0.014,0.0143,0.0123,0.0134,0.0134,0.0164,0.0164,0.0174,0.0176,0.0176,0.018,0.018,0.0237,0.0237,0,0,0,0.0128,0.0127,0.0128,0.0141,0.014,0.0134,0.0134,0.0162,0.0163,0.0177,0.0177,0.018,0.018,0.0236,0.0237,0.0232,0,0,0,0.0128,0.0123,0.0128,0.0125,0.0139,0.0147,0.0132,0.0161,0.0164,0.0177,0.018,0.0181,0.0236,0.0237,0.0231,0.0247,0,0,0,0.0124,0.0123,0.0122,0.0125,0.0126,0.0146,0.0149,0.0161,0.0164,0.0179,0.0181,0.0236,0.0237,0.0231,0.0245,0.0329,0,0,0,0.0122,0.0094,0.0121,0.0089,0.0126,0.0117,0.0148,0.0145,0.0153,0.018,0.0236,0.0237,0.023,0.0245,0.0327,0.0382,0.0395,0,0,0.008,0.0089,0.0067,0.0092,0.0064,0.0117,0.0125,0.0149,0.0176,0.0228,0.0229,0.0231,0.0245,0.0329,0.0425,0.0438,0,0,0,0.0049,0.0039,0.0032,0.0026,0.0036,0.0082,0.0114,0.0157,0.0213,0.0184,0.0248,0.0258,0.0311,0.0339,0.035,0.052,0.024,0.024,0.024,0.0005,0.0004,-0.0019,-0.0008,-0.0,0.0064,0.0121,0.0196,0.0203,0.024,0.0265,0.0342,0.037,0.0379,0.0552,0.027,0.027,0.027,0.027,-0.0042,-0.0042,-0.0032,-0.0052,0.0003,0.0033,0.0146,0.0189,0.0319,0.0292,0.0344,0.0346,0.039,0.0571,0.027,0.027,0.027,0.027,0.027,-0.0057,-0.005,-0.0063,-0.0056,-0.0021,0.0039,0.0132,0.0218,0.0323,0.0379,0.0458,0.0458,0.0613,0.0413,0.0413,0.0414,0.0414,0.0414,0.0414,-0.0046,-0.0057,-0.0063,-0.005,-0.0044,0.0014,0.0137,0.0232,0.0399,0.0484,0.0485,0.0672,0.0387,0.0376,0.0421,0.042,0.0419,0.0418,0.0418,-0.0034,-0.0037,-0.0054,-0.0058,-0.004,0.0023,0.0123,0.0349,0.0478,0.059,0.0839,0.0564,0.059,0.0581,0.0577,0.0671,0.0671,0.0671,0.0671,-0.0008,-0.0014,-0.0042,-0.0067,-0.0048,0.002,0.0238,0.05,0.0833,0.1021,0.104,0.102,0.1002,0.105,0.1032,0.1036,0.1245,0.1246,0.1247,0.0026,0.0005,-0.0012,-0.0058,-0.0068,0.0039,0.0296,0.0749,0.1192,0.1287,0.1274,0.125,0.1231,0.1189,0.1265,0.1225,0.123,0,0]}],[{"header":{"parameterUnit":"m.s-1","parameterCategory":2,"la1":30.2992,"la2":30.254,"lo1":-89.0895,"lo2":-89.0443,"dy":0.0025,"dx":0.0025,"nx":19,"ny":19,"refTime":"2026-03-14T03:00:00:Z","depth":"2","parameterNumber":2,"parameterNumberName":"U-component_of_CURRENTS"},"data":[0,0,0,-0.1034,-0.1035,-0.107,-0.107,-0.1053,-0.1053,0,0,0,0,0,0,0,0,0,0,0,-0.1012,-0.1012,-0.1034,-0.1035,-0.107,-0.107,-0.1053,-0.1053,0,0,0,0,0,0,0,0,0,0,0,-0.1012,-0.1012,-0.1013,-0.1035,-0.107,-0.107,-0.1053,-0.104,0,0,0,0,0,0,0,0,0,0,-0.1013,-0.0999,-0.1012,-0.1013,-0.1035,-0.107,-0.107,-0.104,-0.1041,-0.1021,0,-0.1027,0,-0.1045,-0.1051,-0.1051,0,0,0,-0.1028,-0.0998,-0.1016,-0.1013,-0.1036,-0.107,-0.1052,-0.1041,-0.1042,-0.1022,-0.1027,-0.1027,-0.1045,-0.105,-0.105,-0.1039,-0.1039,0,0,-0.1026,-0.1009,-0.1016,-0.1017,-0.1044,-0.1051,-0.1053,-0.1042,-0.1036,-0.1027,-0.1027,-0.1044,-0.105,-0.105,-0.1039,-0.1039,0,0,0,-0.1025,-0.1008,-0.1027,-0.1017,-0.1032,-0.1052,-0.1055,-0.1036,-0.1045,-0.1027,-0.1044,-0.105,-0.105,-0.1039,-0.1039,-0.1075,0,0,0,-0.1023,-0.1008,-0.1026,-0.1015,-0.1032,-0.1042,-0.1049,-0.1045,-0.1046,-0.1044,-0.105,-0.1049,-0.1039,-0.1039,-0.1073,-0.1068,0,0,0,-0.1011,-0.1007,-0.1013,-0.1014,-0.1035,-0.1043,-0.1051,-0.1046,-0.1056,-0.1051,-0.1049,-0.1039,-0.1039,-0.1072,-0.1067,-0.0955,0,0,0,-0.099,-0.1003,-0.1012,-0.1034,-0.1035,-0.1074,-0.1052,-0.107,-0.1069,-0.105,-0.1039,-0.1039,-0.1072,-0.1066,-0.0956,-0.0775,-0.0755,0,0,-0.0998,-0.1003,-0.102,-0.103,-0.1068,-0.1069,-0.1097,-0.1083,-0.1062,-0.1037,-0.1037,-0.1074,-0.1067,-0.0955,-0.0789,-0.0768,0,0,0,-0.1019,-0.1024,-0.1039,-0.1062,-0.1093,-0.1109,-0.1109,-0.1097,-0.108,-0.1065,-0.1069,-0.1062,-0.099,-0.0885,-0.0868,-0.104,-0.104,-0.104,-0.104,-0.0984,-0.102,-0.1046,-0.1086,-0.1108,-0.1133,-0.1136,-0.1115,-0.1102,-0.1096,-0.1089,-0.1025,-0.0917,-0.0901,-0.1096,-0.1096,-0.1096,-0.1096,-0.1096,-0.0992,-0.1001,-0.1047,-0.1084,-0.1113,-0.1133,-0.1144,-0.1139,-0.1082,-0.1106,-0.1033,-0.0926,-0.0885,-0.1099,-0.1098,-0.1098,-0.1098,-0.1097,-0.1097,-0.0961,-0.0967,-0.1004,-0.1042,-0.1071,-0.1109,-0.1074,-0.1085,-0.1078,-0.1055,-0.0835,-0.0832,-0.0992,-0.098,-0.098,-0.0979,-0.0979,-0.0978,-0.0978,-0.0897,-0.0937,-0.0938,-0.0986,-0.099,-0.0996,-0.0997,-0.0953,-0.0846,-0.0827,-0.0824,-0.0983,-0.0987,-0.0982,-0.0971,-0.0972,-0.0973,-0.0974,-0.0974,-0.0821,-0.0838,-0.0832,-0.0836,-0.0851,-0.0789,-0.0817,-0.0654,-0.059,-0.0498,-0.0661,-0.0672,-0.0613,-0.0625,-0.0609,-0.0501,-0.0502,-0.0501,-0.0501,-0.0735,-0.0759,-0.0715,-0.0704,-0.069,-0.0689,-0.05,-0.0384,-0.0331,-0.0311,-0.032,-0.035,-0.0371,-0.0303,-0.0322,-0.0302,-0.0115,-0.0114,-0.0114,-0.0649,-0.0662,-0.0597,-0.0627,-0.0615,-0.0559,-0.0335,-0.011,-0.0022,-0.0108,-0.0353,-0.0456,-0.0526,-0.055,-0.0468,-0.049,-0.0467,0,0]},{"header":{"parameterUnit":"m.s-1","parameterCategory":2,"la1":30.2992,"la2":30.254,"lo1":-89.0895,"lo2":-89.0443,"dy":0.0025,"dx":0.0025,"nx":19,"ny":19,"refTime":"2026-03-14T03:00:00:Z","depth":"2","parameterNumber":3,"parameterNumberName":"V-component_of_CURRENTS"},"data":[0,0,0,0.0067,0.0067,0.0079,0.0079,0.0121,0.0121,0,0,0,0,0,0,0,0,0,0,0,0.0061,0.0061,0.0067,0.0067,0.0079,0.0079,0.0121,0.0121,0,0,0,0,0,0,0,0,0,0,0,0.0062,0.0061,0.0061,0.0067,0.0079,0.0079,0.0121,0.0106,0,0,0,0,0,0,0,0,0,0,0.0092,0.008,0.0061,0.0061,0.0067,0.0079,0.0079,0.0105,0.0107,0.0121,0,0.0117,0,0.0119,0.0124,0.0124,0,0,0,0.0073,0.0079,0.0082,0.0061,0.0067,0.0079,0.0075,0.0106,0.0108,0.0124,0.0118,0.0119,0.012,0.0124,0.0124,0.0181,0.0182,0,0,0.0072,0.0066,0.008,0.0083,0.0063,0.0075,0.0075,0.0107,0.0107,0.0118,0.012,0.0121,0.0125,0.0125,0.0181,0.0181,0,0,0,0.0066,0.0066,0.0068,0.0081,0.0081,0.0075,0.0076,0.0106,0.0106,0.0121,0.0121,0.0125,0.0125,0.0181,0.0181,0.0174,0,0,0,0.0066,0.0062,0.0067,0.0064,0.008,0.0089,0.0073,0.0104,0.0108,0.0121,0.0125,0.0126,0.018,0.0181,0.0173,0.0185,0,0,0,0.0062,0.0062,0.0061,0.0064,0.0067,0.0089,0.0091,0.0105,0.0108,0.0124,0.0126,0.018,0.0181,0.0173,0.0184,0.0265,0,0,0,0.006,0.0033,0.006,0.0029,0.0066,0.0059,0.0091,0.0089,0.0098,0.0125,0.0181,0.0181,0.0173,0.0183,0.0263,0.0252,0.026,0,0,0.0019,0.0028,0.0007,0.0032,0.0005,0.0058,0.0066,0.0092,0.012,0.0172,0.0173,0.0173,0.0184,0.0265,0.0293,0.03,0,0,0,-0.0011,-0.0021,-0.0028,-0.0033,-0.0022,0.0021,0.0056,0.0099,0.0155,0.0129,0.019,0.0198,0.0249,0.0239,0.0244,0.0185,0.0185,0.0184,0.0184,-0.0055,-0.0056,-0.0079,-0.0069,-0.0061,0.0002,0.0057,0.0132,0.0143,0.0179,0.0203,0.0275,0.0262,0.0266,0.0209,0.0209,0.0209,0.0209,0.0209,-0.0102,-0.0104,-0.0095,-0.0114,-0.0063,-0.0033,0.0077,0.0121,0.0249,0.0226,0.0277,0.0244,0.0272,0.0208,0.0209,0.0209,0.0209,0.0209,0.0209,-0.0118,-0.0112,-0.0125,-0.0121,-0.0089,-0.0031,0.0055,0.0142,0.0249,0.0303,0.0341,0.0341,0.0296,0.0339,0.034,0.034,0.034,0.0341,0.0341,-0.0108,-0.012,-0.0129,-0.0117,-0.0113,-0.006,0.0057,0.0146,0.0286,0.0357,0.0357,0.0321,0.0317,0.0307,0.0347,0.0346,0.0345,0.0345,0.0344,-0.01,-0.0102,-0.0125,-0.0131,-0.0117,-0.0068,0.0033,0.0216,0.0333,0.0419,0.041,0.0406,0.0425,0.042,0.0413,0.048,0.048,0.048,0.048,-0.0077,-0.0083,-0.012,-0.0148,-0.0133,-0.0079,0.0087,0.0227,0.0358,0.0379,0.0383,0.0311,0.0308,0.0317,0.0314,0.0303,0.0341,0.0341,0.034,-0.005,-0.0073,-0.0096,-0.0142,-0.0155,-0.0073,0.0105,0.0292,0.0337,0.0331,0.0312,0.048,0.0381,0.0375,0.0392,0.0386,0.0371,0,0]}],[{"header":{"parameterUnit":"m.s-1","parameterCategory":2,"la1":30.2992,"la2":30.254,"lo1":-89.0895,"lo2":-89.0443,"dy":0.0025,"dx":0.0025,"nx":19,"ny":19,"refTime":"2026-03-14T03:00:00:Z","depth":"4","parameterNumber":2,"parameterNumberName":"U-component_of_CURRENTS"},"data":[0,0,0,-0.0798,-0.08,-0.0883,-0.0884,-0.0918,-0.0918,0,0,0,0,0,0,0,0,0,0,0,-0.0768,-0.0769,-0.0798,-0.08,-0.0883,-0.0884,-0.0918,-0.0918,0,0,0,0,0,0,0,0,0,0,0,-0.0768,-0.0769,-0.0769,-0.08,-0.0883,-0.0884,-0.0918,-0.0872,0,0,0,0,0,0,0,0,0,0,-0.08,-0.0785,-0.0768,-0.0769,-0.0801,-0.0883,-0.0884,-0.0871,-0.0875,-0.0859,0,-0.0877,0,-0.0898,-0.0918,-0.0918,0,0,0,-0.0799,-0.0782,-0.0803,-0.077,-0.0802,-0.0883,-0.0845,-0.0874,-0.0878,-0.0865,-0.0878,-0.088,-0.0898,-0.0918,-0.0919,-0.094,-0.094,0,0,-0.0794,-0.0782,-0.08,-0.0806,-0.0828,-0.0843,-0.0848,-0.0877,-0.0883,-0.0878,-0.0881,-0.0899,-0.0919,-0.0919,-0.094,-0.094,0,0,0,-0.0782,-0.0779,-0.0801,-0.0804,-0.0825,-0.0845,-0.0851,-0.0881,-0.0889,-0.0882,-0.0899,-0.0919,-0.0919,-0.094,-0.094,-0.0973,0,0,0,-0.0779,-0.0772,-0.0799,-0.0793,-0.0825,-0.0865,-0.0854,-0.0887,-0.0892,-0.0899,-0.0919,-0.0919,-0.094,-0.094,-0.0972,-0.097,0,0,0,-0.0764,-0.077,-0.0781,-0.0792,-0.0829,-0.0865,-0.0875,-0.0889,-0.0902,-0.0918,-0.0919,-0.094,-0.094,-0.0971,-0.0969,-0.0972,0,0,0,-0.0745,-0.0768,-0.0781,-0.0817,-0.0828,-0.0887,-0.0876,-0.0918,-0.0937,-0.0919,-0.094,-0.094,-0.097,-0.0968,-0.0971,-0.078,0,0,0,-0.0763,-0.077,-0.0793,-0.0806,-0.086,-0.0875,-0.0926,-0.0943,-0.0932,-0.0924,-0.0926,-0.0972,-0.0969,-0.0972,-0.0804,0,0,0,0,-0.0791,-0.0804,-0.0825,-0.0861,-0.0902,-0.0932,-0.0961,-0.0962,-0.0968,-0.0946,-0.0971,-0.0967,-0.0968,-0.0854,-0.0942,-0.0942,-0.0942,-0.0942,-0.0942,-0.0781,-0.0813,-0.0843,-0.0886,-0.0924,-0.0974,-0.0994,-0.0995,-0.0994,-0.0997,-0.0993,-0.1015,-0.0897,-0.1001,-0.1001,-0.1001,-0.1001,-0.1001,-0.1001,-0.0782,-0.0784,-0.0837,-0.0874,-0.0917,-0.0956,-0.1003,-0.1015,-0.1029,-0.1017,-0.1017,-0.0896,-0.1004,-0.1004,-0.1003,-0.1003,-0.1003,-0.1002,-0.1002,-0.0748,-0.0745,-0.0784,-0.0816,-0.0859,-0.092,-0.0932,-0.099,-0.1034,-0.1051,-0.0918,-0.1028,-0.1024,-0.1054,-0.1054,-0.1054,-0.1054,-0.1054,-0.1054,-0.0667,-0.0707,-0.0692,-0.0742,-0.0757,-0.079,-0.0879,-0.0897,-0.0974,-0.0918,-0.1055,-0.1032,-0.103,-0.1027,-0.1054,-0.1054,-0.1054,-0.1054,-0.1054,-0.0583,-0.0592,-0.0573,-0.058,-0.0604,-0.0633,-0.0741,-0.076,-0.0771,-0.0761,-0.0843,-0.0853,-0.0817,-0.0821,-0.0808,-0.0772,-0.077,-0.0767,0,-0.0491,-0.0505,-0.046,-0.0454,-0.0443,-0.0537,-0.0508,-0.0559,-0.0647,-0.0625,-0.0792,-0.0886,-0.0892,-0.0852,-0.0852,-0.0836,0,0,0,-0.0403,-0.0414,-0.0366,-0.0387,-0.0382,-0.0411,-0.0492,-0.0471,-0.0643,-0.0583,-0.0708,-0.0723,-0.0885,-0.1055,-0.1025,-0.1023,-0.1014,0,0]},{"header":{"parameterUnit":"m.s-1","parameterCategory":2,"la1":30.2992,"la2":30.254,"lo1":-89.0895,"lo2":-89.0443,"dy":0.0025,"dx":0.0025,"nx":19,"ny":19,"refTime":"2026-03-14T03:00:00:Z","depth":"4","parameterNumber":3,"parameterNumberName":"V-component_of_CURRENTS"},"data":[0,0,0,-0.0278,-0.0277,-0.0226,-0.0225,-0.0117,-0.0116,0,0,0,0,0,0,0,0,0,0,0,-0.0296,-0.0296,-0.0278,-0.0277,-0.0226,-0.0225,-0.0117,-0.0116,0,0,0,0,0,0,0,0,0,0,0,-0.0296,-0.0296,-0.0296,-0.0277,-0.0226,-0.0225,-0.0117,-0.0164,0,0,0,0,0,0,0,0,0,0,-0.0218,-0.0246,-0.0296,-0.0296,-0.0277,-0.0226,-0.0225,-0.0166,-0.0161,-0.0131,0,-0.0133,0,-0.0125,-0.0109,-0.0108,0,0,0,-0.0265,-0.0251,-0.0238,-0.0296,-0.0276,-0.0226,-0.0245,-0.0163,-0.0157,-0.0124,-0.0131,-0.0127,-0.0123,-0.0108,-0.0107,-0.0027,-0.0027,0,0,-0.0268,-0.0281,-0.0243,-0.0234,-0.0273,-0.0247,-0.0244,-0.016,-0.0157,-0.0131,-0.0125,-0.0122,-0.0107,-0.0106,-0.0028,-0.0027,0,0,0,-0.0284,-0.0283,-0.0273,-0.0239,-0.0235,-0.0246,-0.0242,-0.016,-0.0157,-0.0124,-0.012,-0.0107,-0.0105,-0.0028,-0.0027,-0.009,0,0,0,-0.0285,-0.0294,-0.0274,-0.0281,-0.0237,-0.0203,-0.0244,-0.0163,-0.0153,-0.0121,-0.0107,-0.0104,-0.0028,-0.0028,-0.0089,-0.017,0,0,0,-0.0296,-0.0294,-0.0292,-0.0282,-0.0265,-0.0205,-0.0196,-0.0161,-0.0152,-0.0108,-0.0104,-0.0028,-0.0028,-0.0088,-0.0165,-0.02,0,0,0,-0.0306,-0.0312,-0.0293,-0.0296,-0.0266,-0.0236,-0.0197,-0.0162,-0.0128,-0.0106,-0.0028,-0.0028,-0.0087,-0.0162,-0.0197,-0.0179,0,0,0,-0.032,-0.0314,-0.0316,-0.0297,-0.0298,-0.0242,-0.0227,-0.0166,-0.0114,-0.005,-0.0048,-0.0089,-0.0165,-0.0199,-0.0167,0,0,0,0,-0.0324,-0.0335,-0.0327,-0.0325,-0.029,-0.0285,-0.0208,-0.0171,-0.0113,-0.0096,-0.0068,-0.0114,-0.0134,-0.0112,-0.0027,-0.0027,-0.0027,-0.0027,-0.0027,-0.0372,-0.0361,-0.0383,-0.0371,-0.0354,-0.0298,-0.028,-0.0215,-0.0134,-0.0115,-0.0147,-0.02,-0.0175,-0.0097,-0.0097,-0.0097,-0.0098,-0.0098,-0.0098,-0.0432,-0.0461,-0.0453,-0.0476,-0.0459,-0.0442,-0.036,-0.0303,-0.0255,-0.0183,-0.0197,-0.0157,-0.0104,-0.0102,-0.0102,-0.0101,-0.0101,-0.01,-0.01,-0.0487,-0.0507,-0.0522,-0.0574,-0.0606,-0.0558,-0.0548,-0.0465,-0.0358,-0.0362,-0.0313,-0.0257,-0.0274,-0.0346,-0.0347,-0.0347,-0.0348,-0.0348,-0.0348,-0.0551,-0.0568,-0.0634,-0.0686,-0.0712,-0.0726,-0.0667,-0.0618,-0.0523,-0.0423,-0.0387,-0.0285,-0.0277,-0.0288,-0.0356,-0.0355,-0.0354,-0.0353,-0.0352,-0.0638,-0.0644,-0.0727,-0.0767,-0.0823,-0.0813,-0.0779,-0.068,-0.0644,-0.0591,-0.0438,-0.0431,-0.0419,-0.0408,-0.0423,-0.0535,-0.0535,-0.0535,0,-0.0698,-0.0709,-0.0792,-0.0832,-0.0857,-0.0841,-0.076,-0.0718,-0.0628,-0.0592,-0.0647,-0.0477,-0.0469,-0.0456,-0.0447,-0.0466,0,0,0,-0.0768,-0.0766,-0.0816,-0.0834,-0.0843,-0.0765,-0.0733,-0.0693,-0.0625,-0.0619,-0.0537,-0.0536,-0.0489,-0.0379,-0.0345,-0.0336,-0.0353,0,0]}]]